This is the latest recevied weather packets stored in our database for station/object K4ZZR. If no packets are shown the sender has not sent any weather packets the latest 1 day(s).
| Time | Temp. | Humidity | Pressure | Rain* | Wind** | Luminosity | Snow |
|---|---|---|---|---|---|---|---|
| 1778099429 | 28.33° C | 64% | 1015.7 hPa | 0 mm | - | 624 W/m² | - |
| 1778097913 | 29.44° C | 64% | 1016 hPa | 0 mm | - | 703 W/m² | - |
| 1778095488 | 28.89° C | 65% | 1016 hPa | 0 mm | - | 805 W/m² | - |
| 1778094881 | 28.89° C | 64% | 1016.2 hPa | 0 mm | - | 802 W/m² | - |
| 1778092455 | 28.89° C | 61% | 1016.5 hPa | 0 mm | - | 832 W/m² | - |
| 1778091547 | 28.89° C | 59% | 1016.5 hPa | 0 mm | - | 794 W/m² | - |
| 1778089728 | 28.89° C | 62% | 1016.9 hPa | 0 mm | - | 937 W/m² | - |
| 1778089425 | 28.89° C | 59% | 1016.9 hPa | 0 mm | - | 900 W/m² | - |
| 1778089123 | 28.33° C | 55% | 1016.8 hPa | 0 mm | - | 942 W/m² | - |
| 1778088213 | 28.89° C | 57% | 1016.9 hPa | 0 mm | - | 931 W/m² | - |
| 1778086700 | 28.89° C | 63% | 1017 hPa | 0 mm | - | 728 W/m² | - |
| 1778084878 | 28.33° C | 70% | 1017.2 hPa | 0 mm | - | 629 W/m² | - |
| 1778081627 | 27.78° C | 78% | 1017.3 hPa | 0 mm | - | 759 W/m² | - |
| 1778081324 | 27.78° C | 77% | 1017.5 hPa | 0 mm | - | 754 W/m² | - |
| 1778081021 | 27.78° C | 79% | 1017.3 hPa | 0 mm | - | 690 W/m² | - |
| 1778079203 | 27.78° C | 79% | 1017.3 hPa | 0 mm | - | 564 W/m² | - |
| 1778078597 | 27.22° C | 80% | 1017.3 hPa | 0 mm | - | 682 W/m² | - |
| 1778078296 | 27.22° C | 81% | 1017.3 hPa | 0 mm | - | 583 W/m² | - |
| 1778076784 | 26.67° C | 83% | 1016.9 hPa | 0 mm | - | 626 W/m² | - |
| 1778076178 | 26.67° C | 85% | 1016.7 hPa | 0 mm | - | 555 W/m² | - |
| 1778075571 | 26.67° C | 83% | 1016.9 hPa | 0 mm | - | 401 W/m² | - |
| 1778074662 | 26.11° C | 85% | 1016.8 hPa | 0 mm | - | 333 W/m² | - |
| 1778073146 | 26.67° C | 85% | 1016.5 hPa | 0 mm | - | 286 W/m² | - |
| 1778072843 | 25.56° C | 87% | 1016.7 hPa | 0 mm | - | 320 W/m² | - |
| 1778072540 | 25.56° C | 87% | 1016.4 hPa | 0 mm | - | 190 W/m² | - |
* Rain latest hour (hover to see other rain measurements)
** Current wind speed in m/s (hover to see current wind gust speed)